[[{"header":{"parameterUnit":"m.s-1","parameterCategory":1,"la1":30.2991,"la2":30.254,"lo1":-89.0895,"lo2":-89.0444,"dy":0.0017,"dx":0.0017,"nx":28,"ny":28,"refTime":"2025-09-01T03:00:00:Z","depth":0,"parameterNumber":2,"parameterNumberName":"U-component_of_WINDS"},"data":[0,0,0,0,0,0,0,0,0,0,0,0,0,0,0,0,0,0,0,0,0,0,0,0,0,0,0,0,0,0,0,0,0,0,0,0,0,0,0,0,0,0,0,0,0,0,0,0,0,0,0,0,0,0,0,0,0,0,-2.9191,-2.919,0,-2.9157,-2.9156,-2.9156,-2.9036,-2.9033,-2.903,-2.9028,-2.8995,-2.8997,-2.8998,0,0,0,0,0,0,0,0,0,0,0,0,0,-2.9155,-2.9156,-2.9191,-2.919,-2.919,-2.9157,-2.9156,-2.9156,-2.9036,-2.9033,-2.9029,-2.9026,-2.8994,-2.8996,-2.8998,0,0,0,0,0,0,0,0,0,0,0,0,0,-2.9151,-2.9156,-2.9191,-2.9126,-2.912,-2.9157,-2.9156,-2.9156,-2.9037,-2.9033,-2.9029,-2.9025,-2.8994,-2.8996,-2.8999,-2.9096,0,0,-2.9006,-2.9007,0,0,0,0,0,0,0,0,-2.9151,-2.9152,-2.9136,-2.9131,-2.9124,-2.9096,-2.9131,-2.9136,-2.9038,-2.9068,-2.9028,-2.9023,-2.9032,-2.9031,-2.9034,-2.9094,-2.9093,-2.9007,-2.9008,-2.9009,-2.901,0,0,0,0,0,0,0,-2.9151,-2.9153,-2.9177,-2.9136,-2.9129,-2.91,-2.9095,-2.9132,-2.9074,-2.9065,-2.9057,-2.9054,-2.9028,-2.9032,-2.9032,-2.9093,-2.9006,-2.9009,-2.901,-2.9011,-2.9232,-2.9236,0,0,0,0,0,0,-2.9161,-2.9154,-2.9178,-2.9176,-2.9128,-2.9104,-2.9098,-2.9109,-2.9073,-2.9063,-2.9058,-2.9049,-2.9029,-2.9029,-2.9031,-2.9142,-2.9009,-2.9011,-2.9013,-2.9228,-2.9233,-2.9238,0,0,0,0,0,0,-2.916,-2.9164,-2.918,-2.9163,-2.9162,-2.9109,-2.9122,-2.9111,-2.9114,-2.9067,-2.9056,-2.9072,-2.9026,-2.9027,-2.9081,-2.9139,-2.9013,-2.9015,-2.9223,-2.9229,-2.9235,-2.9365,0,0,0,0,0,0,-2.916,-2.9165,-2.92,-2.9164,-2.9164,-2.923,-2.9126,-2.9113,-2.9119,-2.9106,-2.9078,-2.9069,-2.9023,-2.9078,-2.9083,-2.914,-2.9017,-2.9217,-2.9226,-2.9233,-2.9356,-2.9375,-2.9393,0,0,0,0,0,-2.9159,-2.9238,-2.9202,-2.9206,-2.9207,-2.9233,-2.9233,-2.9178,-2.9124,-2.9159,-2.913,-2.907,-2.9132,-2.9084,-2.9089,-2.9148,-2.9213,-2.9223,-2.9233,-2.9347,-2.9372,-2.9392,0,0,0,0,0,0,-2.9282,-2.9232,-2.9192,-2.9262,-2.9253,-2.9213,-2.9256,-2.9206,-2.9212,-2.92,-2.9133,-2.9127,-2.9191,-2.9175,-2.9122,-2.9241,-2.9163,-2.9174,-2.9248,-2.9271,-2.9289,-2.9291,-2.9019,0,0,0,0,0,-2.9318,-2.9343,-2.9298,-2.9364,-2.9362,-2.931,-2.932,-2.9278,-2.9266,-2.9262,-2.9235,-2.9227,-2.9244,-2.9257,-2.927,-2.9354,-2.9346,-2.9397,-2.9415,-2.9431,-2.9441,-2.9484,-2.9506,-2.927,-2.927,-2.927,0,0,-2.9391,-2.9367,-2.9387,-2.9388,-2.9376,-2.9404,-2.9307,-2.9341,-2.9361,-2.9267,-2.9315,-2.9296,-2.9282,-2.9351,-2.938,-2.934,-2.9505,-2.9443,-2.9456,-2.9457,-2.9496,-2.9519,-2.9538,-2.9277,-2.9275,-2.9274,0,0,-2.9538,-2.9523,-2.9576,-2.9566,-2.9549,-2.9515,-2.9528,-2.9496,-2.948,-2.9527,-2.9457,-2.9481,-2.9513,-2.9506,-2.9506,-2.9654,-2.9599,-2.966,-2.9756,-2.9799,-2.9818,-2.9834,-2.9886,-2.9905,-2.9671,-2.9671,-2.9672,0,-2.9631,-2.9669,-2.961,-2.9648,-2.9651,-2.9568,-2.9622,-2.9615,-2.9604,-2.9609,-2.9564,-2.9602,-2.9587,-2.9653,-2.9689,-2.9693,-2.9706,-2.9662,-2.982,-2.9835,-2.9849,-2.9898,-2.9918,-2.9679,-2.9678,-2.9677,-2.9676,0,-2.9785,-2.9813,-2.9858,-2.9849,-2.9857,-2.9903,-2.9852,-2.9868,-2.9827,-2.9798,-2.9848,-2.9827,-2.9835,-2.9848,-2.9809,-2.991,-2.9885,-2.9832,-2.9751,-2.988,-2.9925,-2.9943,-2.9689,-2.9687,-2.9685,-2.9683,0,0,-3.0006,-2.9965,-2.9982,-2.9977,-2.9954,-2.9974,-3.0018,-3.0025,-3.004,-3.0036,-3.007,-3.01,-3.0051,-3.0052,-3.0011,-3.0049,-3.0166,-2.999,-2.9989,-3.0023,-3.0276,-3.0315,-3.0338,-3.0131,-3.0134,-3.0137,-3.0277,0,-3.0145,-3.0214,-3.0163,-3.0242,-3.0267,-3.019,-3.0228,-3.0218,-3.0193,-3.0211,-3.0184,-3.0205,-3.0139,-3.0139,-3.0173,-3.0145,-3.0216,-3.0134,-3.0162,-3.0164,-3.0166,-3.0361,-3.0402,-3.0535,-3.0294,-3.0297,-3.0299,0,-3.0315,-3.0318,-3.04,-3.0372,-3.038,-3.0415,-3.0418,-3.0437,-3.0425,-3.0404,-3.0407,-3.0356,-3.0398,-3.0321,-3.0377,-3.0323,-3.0332,-3.032,-3.0324,-3.0323,-3.0238,-3.0364,-3.0576,-3.0595,-3.0326,-3.0324,-3.0322,0,-3.0467,-3.0492,-3.0544,-3.0543,-3.0511,-3.0538,-3.0526,-3.051,-3.0518,-3.0522,-3.0526,-3.0536,-3.054,-3.0549,-3.0503,-3.0451,-3.0565,-3.0485,-3.0549,-3.055,-3.0574,-3.0573,-3.0789,-3.0584,-3.0583,-3.0583,-3.0583,0,-3.0626,-3.0679,-3.0612,-3.0644,-3.0701,-3.0643,-3.0702,-3.0682,-3.0669,-3.0696,-3.0631,-3.0658,-3.0597,-3.0618,-3.0583,-3.0635,-3.0638,-3.0622,-3.0612,-3.0627,-3.0629,-3.063,-3.062,-3.0588,-3.0587,-3.0586,-3.0585,0,-3.0805,-3.0762,-3.0813,-3.078,-3.0773,-3.0817,-3.0788,-3.0817,-3.0788,-3.0824,-3.0829,-3.0784,-3.0806,-3.0762,-3.0778,-3.0755,-3.0828,-3.0804,-3.0831,-3.0823,-3.089,-3.0884,-3.1113,-3.114,-3.0919,-3.0921,-3.0923,0,-3.0908,-3.0946,-3.0918,-3.0931,-3.0923,-3.0946,-3.0954,-3.0899,-3.0911,-3.0901,-3.0931,-3.0948,-3.0957,-3.0997,-3.0966,-3.0978,-3.0953,-3.1033,-3.0955,-3.0969,-3.0953,-3.0951,-3.0954,-3.1048,-3.1051,-3.1053,-3.1055,0,-3.1096,-3.1073,-3.1087,-3.1094,-3.1106,-3.1109,-3.1107,-3.1123,-3.1065,-3.1081,-3.1102,-3.111,-3.1127,-3.1144,-3.115,-3.1139,-3.1088,-3.1081,-3.1096,-3.1111,-3.1125,-3.1117,-3.0873,-3.1075,-3.1073,-3.1071,-3.107,-3.107,-3.1238,-3.1269,-3.1254,-3.1272,-3.1266,-3.1266,-3.1291,-3.1266,-3.1283,-3.1292,-3.1259,-3.1289,-3.1277,-3.1279,-3.1274,-3.1296,-3.126,-3.1283,-3.1288,-3.1294,-3.1305,-3.1123,-3.1297,-3.1297,-3.1296,-3.1296,-3.1295,0,-3.1422,-3.1409,-3.1426,-3.1426,-3.1441,-3.1392,-3.1389,-3.1404,-3.143,-3.1424,-3.1435,-3.1461,-3.1478,-3.1449,-3.1462,-3.1485,-3.1463,-3.149,-3.1487,-3.1486,-3.1336,-3.1321,-3.1509,-3.1509,-3.1509,-3.1509,-3.1509,-3.1509,-3.1519,-3.1568,-3.1545,-3.1591,-3.1578,-3.1605,-3.1607,-3.1608,-3.1602,-3.1633,-3.1647,-3.1628,-3.1614,-3.1625,-3.1639,-3.163,-3.1637,-3.1673,-3.1657,-3.1517,-3.1496,-3.1476,-3.1461,-3.1676,-3.1676,-3.1804,-3.1805,-3.1806]},{"header":{"parameterUnit":"m.s-1","parameterCategory":1,"la1":30.2991,"la2":30.254,"lo1":-89.0895,"lo2":-89.0444,"dy":0.0017,"dx":0.0017,"nx":28,"ny":28,"refTime":"2025-09-01T03:00:00:Z","depth":0,"parameterNumber":3,"parameterNumberName":"V-component_of_WINDS"},"data":[0,0,0,0,0,0,0,0,0,0,0,0,0,0,0,0,0,0,0,0,0,0,0,0,0,0,0,0,0,0,0,0,0,0,0,0,0,0,0,0,0,0,0,0,0,0,0,0,0,0,0,0,0,0,0,0,0,0,2.4942,2.4942,0,2.4956,2.4956,2.4956,2.4991,2.4992,2.4993,2.4994,2.5004,2.5004,2.5003,0,0,0,0,0,0,0,0,0,0,0,0,0,2.4945,2.4944,2.4942,2.4942,2.4942,2.4956,2.4956,2.4956,2.4991,2.4992,2.4993,2.4994,2.5004,2.5004,2.5003,0,0,0,0,0,0,0,0,0,0,0,0,0,2.4949,2.4944,2.4942,2.4962,2.4964,2.4956,2.4956,2.4956,2.4991,2.4992,2.4993,2.4994,2.5004,2.5004,2.5003,2.4976,0,0,2.5001,2.5001,0,0,0,0,0,0,0,0,2.4949,2.4949,2.4959,2.496,2.4962,2.4973,2.4961,2.4963,2.4991,2.498,2.4994,2.4995,2.4993,2.4993,2.4993,2.4977,2.4977,2.5001,2.5001,2.5001,2.5,0,0,0,0,0,0,0,2.4949,2.4949,2.4947,2.4959,2.4961,2.4969,2.4971,2.4961,2.498,2.4981,2.4984,2.4985,2.4994,2.4994,2.4993,2.4977,2.5001,2.5001,2.5,2.5,2.4939,2.4938,0,0,0,0,0,0,2.4946,2.4948,2.4947,2.4948,2.4958,2.4968,2.497,2.4968,2.498,2.4983,2.4984,2.4987,2.4994,2.4994,2.4994,2.4963,2.5001,2.5,2.5,2.4941,2.4939,2.4938,0,0,0,0,0,0,2.4946,2.4945,2.4946,2.4949,2.495,2.4967,2.4964,2.4968,2.4968,2.4982,2.4986,2.4981,2.4995,2.4995,2.4981,2.4963,2.5,2.4999,2.4942,2.494,2.4939,2.49,0,0,0,0,0,0,2.4946,2.4945,2.4935,2.4948,2.4949,2.4933,2.4964,2.4968,2.4967,2.497,2.498,2.4982,2.4996,2.4981,2.498,2.4963,2.4999,2.4944,2.4941,2.4939,2.4903,2.4897,2.4892,0,0,0,0,0,2.4946,2.4923,2.4935,2.4934,2.4938,2.4932,2.4933,2.495,2.4965,2.4955,2.4965,2.4982,2.4966,2.498,2.4978,2.4961,2.4945,2.4942,2.4939,2.4905,2.4898,2.4892,0,0,0,0,0,0,2.4907,2.4925,2.4938,2.492,2.4924,2.4938,2.4926,2.4942,2.4941,2.4944,2.4965,2.4966,2.4949,2.4954,2.4969,2.4936,2.4958,2.4955,2.4933,2.4926,2.4921,2.4919,2.4998,0,0,0,0,0,2.4896,2.4891,2.4908,2.4889,2.4891,2.4908,2.4907,2.492,2.4925,2.4926,2.4935,2.4938,2.4934,2.4931,2.4928,2.4904,2.4906,2.4892,2.4887,2.4882,2.4878,2.4866,2.4859,2.4929,2.4929,2.4929,0,0,2.4874,2.4884,2.4879,2.4882,2.4887,2.488,2.491,2.4901,2.4896,2.4925,2.4912,2.4918,2.4923,2.4904,2.4896,2.4908,2.486,2.4879,2.4875,2.4874,2.4862,2.4856,2.485,2.4927,2.4927,2.4928,0,0,2.483,2.4837,2.4823,2.4827,2.4835,2.4847,2.4844,2.4856,2.4861,2.4849,2.487,2.4864,2.4857,2.4859,2.486,2.4818,2.4833,2.4816,2.4787,2.4775,2.4769,2.4765,2.4748,2.4742,2.4813,2.4813,2.4813,0,2.48,2.4792,2.4813,2.4803,2.4804,2.4831,2.4816,2.482,2.4825,2.4825,2.4838,2.4829,2.4835,2.4817,2.4806,2.4806,2.4802,2.4814,2.4769,2.4764,2.476,2.4744,2.4738,2.4811,2.4811,2.4811,2.4812,0,2.4755,2.4749,2.4737,2.4743,2.4742,2.473,2.4748,2.4745,2.4758,2.4768,2.4755,2.4763,2.4762,2.4759,2.4771,2.4742,2.4749,2.4765,2.4788,2.4751,2.4736,2.4731,2.4808,2.4809,2.4809,2.481,0,0,2.4685,2.4704,2.4699,2.4702,2.4713,2.4708,2.4697,2.4697,2.4693,2.4697,2.4687,2.4681,2.4697,2.4697,2.4711,2.47,2.4665,2.4718,2.4718,2.4706,2.4631,2.4618,2.461,2.4676,2.4675,2.4674,2.463,0,2.4642,2.4625,2.4644,2.4622,2.4616,2.4643,2.4633,2.4638,2.4648,2.4644,2.4654,2.4649,2.467,2.4671,2.4661,2.4671,2.465,2.4675,2.4665,2.4665,2.4661,2.4603,2.4589,2.4547,2.4625,2.4624,2.4624,0,2.4589,2.4591,2.4569,2.4582,2.458,2.4571,2.4573,2.4569,2.4576,2.4583,2.4584,2.4601,2.459,2.4614,2.4599,2.4616,2.4614,2.4618,2.4617,2.4615,2.464,2.4598,2.4534,2.4527,2.4615,2.4616,2.4617,0,2.4538,2.4535,2.4522,2.4524,2.4539,2.4532,2.4538,2.4546,2.4545,2.4546,2.4545,2.4545,2.4544,2.4544,2.4559,2.4576,2.4542,2.4567,2.4546,2.4546,2.4536,2.4536,2.4469,2.4538,2.4538,2.4538,2.4538,0,2.4487,2.4472,2.4499,2.449,2.4474,2.4497,2.448,2.4488,2.4495,2.4488,2.4512,2.4504,2.4527,2.4522,2.4534,2.4519,2.4519,2.4524,2.4527,2.452,2.4519,2.4518,2.452,2.4537,2.4537,2.4537,2.4537,0,2.4426,2.4444,2.4431,2.4447,2.445,2.4438,2.4451,2.4443,2.4455,2.4446,2.4445,2.4463,2.4458,2.4474,2.4472,2.448,2.4458,2.4467,2.4455,2.4457,2.4435,2.4436,2.4363,2.4354,2.443,2.4429,2.4428,0,2.4391,2.438,2.4396,2.4393,2.4398,2.4393,2.4393,2.4415,2.4413,2.442,2.4411,2.4408,2.4407,2.4398,2.441,2.4409,2.4416,2.4391,2.4416,2.441,2.4414,2.4413,2.4412,2.4385,2.4384,2.4383,2.4382,0,2.4327,2.4337,2.4335,2.4337,2.4336,2.4338,2.4342,2.4338,2.4361,2.4358,2.4354,2.4353,2.4352,2.4348,2.4349,2.4354,2.4371,2.4375,2.437,2.4362,2.4355,2.4357,2.4439,2.4376,2.4376,2.4377,2.4377,2.4378,2.4277,2.4268,2.4278,2.4276,2.4281,2.4284,2.4278,2.4289,2.4287,2.4287,2.43,2.4293,2.4301,2.4304,2.4308,2.4302,2.4314,2.4306,2.4304,2.4301,2.4297,2.4358,2.4302,2.4303,2.4303,2.4303,2.4303,0,2.4212,2.422,2.4218,2.4223,2.4221,2.424,2.4245,2.4242,2.4236,2.4241,2.424,2.4235,2.4233,2.4245,2.4244,2.4237,2.4244,2.4235,2.4235,2.4236,2.4287,2.4291,2.4229,2.4229,2.4229,2.4229,2.4229,2.4229,2.4179,2.4165,2.4176,2.4165,2.4173,2.4167,2.4168,2.4171,2.4176,2.417,2.4168,2.4177,2.4185,2.4185,2.4182,2.4186,2.4184,2.4171,2.4177,2.4225,2.4232,2.4239,2.4243,2.4171,2.4171,2.4126,2.4126,2.4125]}]]